User: anonymous   Login
Location: NJAA Observatory
(40.6819°N, 74.8979°W)
Time: 00:29:44
(UTC-05:00)
Language:

Cosmos 220 Rocket - Orbit

View from above orbital plane
View from above orbital plane
View from above satellite
View from above satellite

Ground track
Ground track

The orbit data is extracted from the following two-line orbital elements,

1 03230U 68040B   15028.67528601  .00001481  00000-0  16143-3 0  4736
2 03230 074.0366 184.0309 0031494 005.1762 354.9738 14.88666670505891
Epoch (UTC): 28 January 2015 16:12:24
Eccentricity: 0.0031494
inclination: 74.0366°
perigee height: 580 km
apogee height: 624 km
right ascension of ascending node: 184.0309°
argument of perigee: 5.1762°
revolutions per day: 14.88666670
mean anomaly at epoch: 354.9738°
orbit number at epoch: 50589

The dashed part of the orbit path shows where the satellite is in the earth's shadow,  

DLR